This demonstration page uses our WeatherBlox Daily Observations layout. Learn more.

Left ArrowRight Arrow

39.12711, -84.51439

Hourly Observations for January 28, 2018

Temp ( °F °C ) Dew Point ( °F °C ) Humidity (%) Winds ( mph kmh ) Pressure ( in mb ) Visibility ( mi km ) Precip ( " mm )
12:02 am 00:02 Mostly Cloudy with Fog 41 5 41 5 100 100 N N/A 30.27 1025 1 1 N/A
12:17 am 00:17 Mostly Cloudy with Mist and Fog 39 3.9 39 3.9 100 100 N N/A 30.27 1025 1 2 N/A
12:20 am 00:20 Mostly Cloudy with Mist and Fog 39 3.9 39 3.9 100 100 N N/A 30.27 1025 1 1 N/A
12:31 am 00:31 Mostly Cloudy with Mist and Fog 40 4.4 40 4.4 100 100 N N/A 30.30 1026 1 2 N/A
12:46 am 00:46 Mostly Cloudy with Mist and Fog 39 3.9 39 3.9 100 100 N N/A 30.27 1025 3 5 N/A
12:53 am 00:53 Mostly Cloudy with Mist and Fog 41 5 41 5 100 100 NE 3 6 30.29 1026 3 4 N/A
1:01 am 01:01 Cloudy with Mist and Fog 44 6.7 43 6.1 96 96 N N/A 30.27 1025 5 8 N/A
1:53 am 01:53 Mostly Cloudy with Mist and Fog 41 5 41 5 100 100 N N/A 30.29 1026 5 8 N/A
2:53 am 02:53 Cloudy with Mist and Fog 41 5 40 4.4 96 96 N 5 7 30.30 1026 6 10 N/A
3:24 am 03:24 Mostly Clear with Mist and Fog 38 3.3 38 3.3 100 100 N 6 9 30.30 1026 6 10 N/A
3:49 am 03:49 Mostly Cloudy with Mist and Fog 39 4 37 3 93 93 NNW 6 9 30.30 1026 6 10 N/A
3:53 am 03:53 Mostly Cloudy with Mist and Fog 39 3.9 38 3.3 96 96 NNW 5 7 30.30 1026 6 10 N/A
4:19 am 04:19 Mostly Clear with Mist and Fog 37 2.8 37 2.8 100 100 NNE 6 9 30.30 1026 5 8 N/A
4:45 am 04:45 Mostly Cloudy with Mist and Fog 37 2.8 36 2.2 96 96 NE 6 9 30.30 1026 4 6 N/A
4:53 am 04:53 Mostly Cloudy with Mist and Fog 37 2.8 36 2.2 96 96 NNE 3 6 30.30 1026 4 6 N/A
5:35 am 05:35 Mostly Cloudy with Mist and Fog 37 2.8 36 2.2 96 96 N N/A 30.30 1026 4 6 N/A
5:53 am 05:53 Cloudy with Mist and Fog 36 2.2 36 2.2 100 100 N N/A 30.32 1027 3 5 N/A
6:13 am 06:13 Cloudy with Mist and Fog 36 2.2 36 2.2 100 100 NNE 3 6 30.36 1028 3 4 N/A
6:27 am 06:27 Cloudy with Mist and Fog 36 2.2 36 2.2 100 100 N N/A 30.36 1028 2 2 N/A
6:35 am 06:35 Cloudy with Mist and Fog 36 2.2 36 2.2 100 100 NE 3 6 30.36 1028 1 1 N/A
6:53 am 06:53 Mostly Cloudy with Fog 35 1.7 35 1.7 100 100 ENE 3 6 30.34 1027 1 1 N/A
7:53 am 07:53 Mostly Cloudy with Fog 34 1.1 34 1.1 100 100 N N/A 30.36 1028 1 1 N/A
8:53 am 08:53 Mostly Cloudy with Fog 33 0.6 33 0.6 100 100 N N/A 30.37 1028 5 8 N/A
9:53 am 09:53 Mostly Cloudy with Fog 34 1.1 34 1.1 100 100 N N/A 30.37 1028 5 8 N/A
10:53 am 10:53 Mostly Cloudy with Fog 35 1.7 35 1.7 100 100 N N/A 30.38 1029 0 0 N/A
11:08 am 11:08 Cloudy with Mist and Fog 35 1.7 35 1.7 100 100 N N/A 30.39 1029 1 2 N/A
11:37 am 11:37 Cloudy with Mist and Fog 38 3.3 37 2.8 97 97 N N/A 30.36 1028 3 5 N/A
11:47 am 11:47 Partly Cloudy with Mist and Fog 39 4 37 3 93 93 N N/A 30.36 1028 6 10 N/A
11:53 am 11:53 Partly Cloudy with Mist and Fog 39 3.9 37 2.8 93 93 N N/A 30.36 1028 6 10 N/A
12:53 pm 12:53 Sunny 46 7.8 39 3.9 77 77 N N/A 30.32 1027 10 16 N/A
1:53 pm 13:53 Sunny 51 10.6 29 -1.7 43 43 VRB 6 9 30.29 1026 10 16 N/A
2:53 pm 14:53 Sunny 52 11.1 30 -1.1 43 43 E 5 7 30.28 1025 10 16 N/A
3:53 pm 15:53 Sunny 52 11.1 28 -2.2 40 40 W 3 6 30.27 1025 10 16 N/A
4:53 pm 16:53 Sunny 52 11.1 26 -3.3 37 37 N N/A 30.27 1025 10 16 N/A
5:53 pm 17:53 Sunny 48 8.9 29 -1.7 48 48 NNW 5 7 30.28 1026 10 16 N/A
6:53 pm 18:53 Clear 38 3.3 34 1.1 86 86 N N/A 30.30 1026 10 16 N/A
7:53 pm 19:53 Clear 34 1.1 31 -0.6 89 89 N N/A 30.30 1026 10 16 N/A
8:53 pm 20:53 Clear 32 undefined 31 -0.6 96 96 N N/A 30.30 1026 10 16 N/A
9:53 pm 21:53 Clear 30 -1.1 30 -1.1 100 100 N N/A 30.30 1026 10 16 N/A
10:53 pm 22:53 Clear 28 -2.2 28 -2.2 100 100 N N/A 30.30 1026 10 16 N/A
11:20 pm 23:20 Clear with Mist and Fog 28 -2.2 27 -2.8 96 96 N N/A 30.30 1026 3 4 N/A
11:27 pm 23:27 Clear 29 -1.7 28 -2.2 96 96 N N/A 30.30 1026 10 16 N/A
11:53 pm 23:53 Clear with Mist and Fog 27 -2.8 27 -2.8 100 100 N N/A 30.29 1026 2 3 N/A

Powered by AerisWeather